Current conditions around Wisconsin

 

						ASUS43 KMKX 230900
RWRWI

WISCONSIN REGIONAL WEATHER ROUNDUP
NATIONAL WEATHER SERVICE MILWAUKEE/SULLIVAN WI
300 AM CST THU NOV 23 2017

NOTE: "FAIR" INDICATES FEW OR NO CLOUDS BELOW 12,000 FEET WITH NO
SIGNIFICANT WEATHER AND/OR OBSTRUCTIONS TO VISIBILITY.

WIZ001-002-006>008-014>016-023>028-231000-
NORTHWEST WISCONSIN

CITY           SKY/WX    TMP DP  RH WIND       PRES   REMARKS
SUPERIOR ARPT  CLOUDY    24  22  89 W5        29.96S WCI  19
ASHLAND        CLOUDY    26  18  71 SW7       29.95S WCI  18
HAYWARD        CLOUDY    26  20  77 CALM      29.94R
SIREN          CLOUDY    27  19  73 CALM      29.95R
CUMBERLAND     CLOUDY    25  19  80 CALM      29.93S
RICE LAKE      CLOUDY    26  21  79 CALM      29.96S
CHETEK         CLOUDY    26  20  79 E5        29.95S WCI  20
LADYSMITH      CLOUDY    27  21  80 SE3       29.95F
EAU CLAIRE     NOT AVBL
MENOMONIE      CLOUDY    24  18  77 CALM      29.94F
NEW RICHMOND   CLOUDY    22  17  79 CALM      29.94S
OSCEOLA        CLOUDY    22  17  80 CALM      29.97R
$$

WIZ003>005-009-010-017-018-231000-
NORTH CENTRAL WISCONSIN

CITY           SKY/WX    TMP DP  RH WIND       PRES   REMARKS
MANITOWISH WTR CLOUDY    23  21  91 SW7       29.91S WCI  14
ARBOR VITAE    CLOUDY    24  21  88 SW5       29.91F WCI  18
WOODRUFF       CLOUDY    24  21  88 SW5       29.91F WCI  18
RHINELANDER    CLOUDY    24  21  88 SW5       29.93F WCI  18
EAGLE RIVER    CLOUDY    24  19  81 SW7       29.91F WCI  15
LAND O LAKES   CLOUDY    24  20  85 SW6       29.92F WCI  17
PHILLIPS       CLOUDY    24  20  85 S5        29.92F WCI  18
TOMAHAWK       CLOUDY    24  20  87 CALM      29.94F
MEDFORD        MOCLDY    24  19  84 CALM      29.93F
MERRILL        CLOUDY    26  21  81 CALM      29.95F
$$

WIZ029-030-035-036-043>047-231000-
CENTRAL WISCONSIN

CITY           SKY/WX    TMP DP  RH WIND       PRES   REMARKS
WAUSAU         CLOUDY    26  20  77 SE3       29.95F
MOSINEE        CLOUDY    27  21  80 CALM      29.97S
MARSHFIELD     CLEAR     25  16  68 S3        29.94S
STEVENS POINT  CLOUDY    27  18  70 S3        29.98S
WAUPACA        CLOUDY    30  23  74 CALM      30.00S
WAUTOMA        CLOUDY    30  19  63 S5        29.98F WCI  25
WISC RAPIDS    CLOUDY    28  17  63 CALM      29.98S
CAMP DOUGLAS   MOCLDY    29  15  56 CALM      29.96F
$$

WIZ011>013-019>022-031-037>040-048>050-231000-
NORTHEAST WISCONSIN

CITY           SKY/WX    TMP DP  RH WIND       PRES   REMARKS
ANTIGO         CLOUDY    25  20  81 SW6       29.95F WCI  18
SHAWANO        CLOUDY    30  23  74 CALM      30.00S
OCONTO         CLOUDY    28  22  76 W5        30.02R WCI  23
STURGEON BAY   CLOUDY    29  23  78 SW8       30.01F WCI  21
GREEN BAY      CLOUDY    30  25  81 SW6       30.01S WCI  24
MANITOWOC      CLOUDY    30  23  75 S7        30.02F WCI  23
APPLETON       CLOUDY    28  21  74 S7        29.98S WCI  21
CLINTONVILLE   CLOUDY    28  21  74 SW3       30.00S
OSHKOSH        CLOUDY    30  21  69 S8        29.99F WCI  22
$$

WIZ032>034-041-042-053>061-231000-
SOUTHWEST WISCONSIN

CITY           SKY/WX    TMP DP  RH WIND       PRES   REMARKS
LA CROSSE      CLEAR     33  19  56 S9        29.97R WCI  25
SPARTA         CLEAR     30  17  59 CALM      29.98S
VIROQUA        CLEAR     29  19  67 S6        29.95F WCI  23
BOSCOBEL       CLEAR     33  16  49 S6        29.99F WCI  28
PRAIRIE DU CHI CLEAR     32  15  49 SE6       29.99F WCI  27
PLATTEVILLE    PTCLDY    31  21  66 S10       30.00F WCI  22
$$

WIZ056-057-062-063-064-067-068-231000-
SOUTH CENTRAL WISCONSIN

CITY           SKY/WX    TMP DP  RH WIND       PRES   REMARKS
REEDSBURG      CLOUDY    31  17  55 S3        29.97F
BARABOO/DELLS  CLOUDY    32  16  52 SW9       29.97F WCI  24
LONE ROCK      NOT AVBL
MINERAL POINT  CLOUDY    32  21  64 S13       29.98F WCI  22
MADISON        CLOUDY    32  18  56 S9        29.99F WCI  24
MIDDLETON      CLOUDY    33  19  56 SW8       30.01F WCI  26
WATERTOWN      CLOUDY    31  19  62 S9        30.01F WCI  23
MONROE         CLOUDY    32  21  64 S13       30.00F WCI  22
JANESVILLE     CLOUDY    32  19  59 S10G16    30.04F WCI  24
$$

WIZ051-052-058>065-066-070>072-231000-
SOUTHEAST WISCONSIN

CITY           SKY/WX    TMP DP  RH WIND       PRES   REMARKS
MILWAUKEE      CLOUDY    33  20  58 S12       30.04F WCI  24
WAUKESHA       CLOUDY    30  18  59 S8        30.04F WCI  23
MILWAUKEE/TIMM CLOUDY    32  16  51 S7        30.05F WCI  26
RACINE         CLOUDY    32  20  61 SW10      30.07F WCI  24
BURLINGTON     CLOUDY    33  26  76 S8        30.06F WCI  26
KENOSHA        CLOUDY    32  19  58 SW10      30.06F WCI  24
FOND DU LAC    CLOUDY    31  18  58 SW9       30.00F WCI  23
SHEBOYGAN      CLOUDY    30  22  72 S7        30.00F WCI  23
WEST BEND      CLOUDY    30  18  59 S8        30.01F WCI  23
JUNEAU         CLOUDY    30  19  62 S12       30.01F WCI  21
$$

LSZ147-162-231000-
LAKE SUPERIOR

STATION/POSITION TIME  TEMP    WIND        PRES    WAVE
                       AIR SEA DIR/SP/G            HT/PER
                 (UTC) (F)     (DEG/KT/KT) (MB)    (FT/S)
DEVILS ISLAND    0800   29     240/ 17/ 21 1014.7F
SAXON HARBOR     0830   28     180/  9/ 12 1013.5S
$$

LMZ867-665-643>646-231000-
LAKE MICHIGAN

STATION/POSITION TIME  TEMP    WIND        PRES    WAVE
                       AIR SEA DIR/SP/G            HT/PER
                 (UTC) (F)     (DEG/KT/KT) (MB)    (FT/S)
N MID LAKE BUOY  0750   34 47  240/ 19/ 23 1017.1F   4/ 5
NORTHPORT PIER   0840   31     250/  7/ 13 1015.9S
KEWAUNEE LAKESHO 0830   29     210/  7/  9 1015.6F
SHEBOYGAN LAKESH 0800   31     200/ 11/ 12 1018.1F
PORT WASHINGTON  0840   33     200/  5/  8 1017.9F
MILWAUKEE LAKESH 0830   33     200/ 10/ 12   N/A
S MID LAKE BUOY  0750   36 47  270/ 17/ 21 1020.5F   3/ 5
KENOSHA   LAKESH 0800   33     220/  6/  8 1019.6
$$

TC  - TEMPERATURE IN CELSIUS
VSB - VISIBILITY IN STATUTE MILES
WCI - WIND CHILL INDEX
HX  - HEAT INDEX




ASUS43 KMKX 230910
RWRWI

WISCONSIN REGIONAL WEATHER ROUNDUP
NATIONAL WEATHER SERVICE MILWAUKEE/SULLIVAN WI
300 AM CST THU NOV 23 2017

NOTE: "FAIR" INDICATES FEW OR NO CLOUDS BELOW 12,000 FEET WITH NO
SIGNIFICANT WEATHER AND/OR OBSTRUCTIONS TO VISIBILITY.

WIZ001-002-006>008-014>016-023>028-231000-
NORTHWEST WISCONSIN

CITY           SKY/WX    TMP DP  RH WIND       PRES   REMARKS
SUPERIOR ARPT  CLOUDY    24  22  89 W5        29.96S WCI  19
ASHLAND        CLOUDY    26  18  71 SW7       29.95S WCI  18
HAYWARD        CLOUDY    26  20  77 CALM      29.94R
SIREN          CLOUDY    27  19  73 CALM      29.94S
CUMBERLAND     CLOUDY    25  19  80 CALM      29.93S
RICE LAKE      CLOUDY    26  21  79 CALM      29.95S
CHETEK         CLOUDY    25  20  80 E5        29.94S WCI  20
LADYSMITH      CLOUDY    27  21  80 SE3       29.95F
EAU CLAIRE     CLOUDY    20  15  81 CALM      29.94F
MENOMONIE      CLOUDY    24  18  77 CALM      29.94F
NEW RICHMOND   CLOUDY    22  16  76 CALM      29.94S
OSCEOLA        CLOUDY    21  17  82 CALM      29.97S
$$

WIZ003>005-009-010-017-018-231000-
NORTH CENTRAL WISCONSIN

CITY           SKY/WX    TMP DP  RH WIND       PRES   REMARKS
MANITOWISH WTR CLOUDY    23  20  90 SW3       29.91S
ARBOR VITAE    CLOUDY    24  21  88 SW6       29.91F WCI  17
WOODRUFF       CLOUDY    24  21  88 SW6       29.91F WCI  17
RHINELANDER    CLOUDY    24  21  88 SW5       29.93F WCI  18
EAGLE RIVER    CLOUDY    24  19  81 SW7       29.91F WCI  15
LAND O LAKES   CLOUDY    24  20  84 SW7       29.91F WCI  16
PHILLIPS       CLOUDY    24  20  85 S5        29.92F WCI  18
TOMAHAWK       CLOUDY    24  20  87 CALM      29.94F
MEDFORD        PTCLDY    23  18  82 CALM      29.93F
MERRILL        CLOUDY    26  21  81 CALM      29.95F
$$

WIZ029-030-035-036-043>047-231000-
CENTRAL WISCONSIN

CITY           SKY/WX    TMP DP  RH WIND       PRES   REMARKS
WAUSAU         CLOUDY    26  20  77 SE3       29.95F
MOSINEE        CLOUDY    27  21  80 CALM      29.96F
MARSHFIELD     CLEAR     25  16  68 S3        29.94S
STEVENS POINT  CLOUDY    26  18  70 CALM      29.98S
WAUPACA        CLOUDY    30  22  72 CALM      29.99F
WAUTOMA        CLOUDY    30  19  63 S5        29.98F WCI  25
WISC RAPIDS    CLOUDY    28  17  63 CALM      29.98S
CAMP DOUGLAS   MOCLDY    29  15  56 CALM      29.96F
$$

WIZ011>013-019>022-031-037>040-048>050-231000-
NORTHEAST WISCONSIN

CITY           SKY/WX    TMP DP  RH WIND       PRES   REMARKS
ANTIGO         CLOUDY    25  20  82 SW6       29.94F WCI  18
SHAWANO        CLOUDY    30  23  74 CALM      30.00S
OCONTO         CLOUDY    28  22  76 W5        30.01S WCI  23
STURGEON BAY   CLOUDY    29  23  78 SW8       30.01F WCI  21
GREEN BAY      CLOUDY    30  25  81 SW6       30.01S WCI  24
MANITOWOC      CLOUDY    30  23  75 S7        30.02F WCI  23
APPLETON       CLOUDY    30  21  69 S5        29.98S WCI  25
CLINTONVILLE   CLOUDY    28  21  74 CALM      30.00S
OSHKOSH        CLOUDY    30  21  69 S8        29.99F WCI  22
$$

WIZ032>034-041-042-053>061-231000-
SOUTHWEST WISCONSIN

CITY           SKY/WX    TMP DP  RH WIND       PRES   REMARKS
LA CROSSE      CLEAR     33  19  56 S9        29.97R WCI  25
SPARTA         MOCLDY    30  17  59 CALM      29.98R
VIROQUA        CLEAR     29  19  67 S6        29.95F WCI  23
BOSCOBEL       CLEAR     33  16  49 S6        29.99F WCI  28
PRAIRIE DU CHI CLEAR     33  16  50 S5        29.99S WCI  28
PLATTEVILLE    CLEAR     30  21  69 S10       29.99F WCI  21
$$

WIZ056-057-062-063-064-067-068-231000-
SOUTH CENTRAL WISCONSIN

CITY           SKY/WX    TMP DP  RH WIND       PRES   REMARKS
REEDSBURG      CLOUDY    31  17  56 S3        29.97F
BARABOO/DELLS  CLOUDY    31  16  54 SW10      29.96F WCI  22
LONE ROCK      CLOUDY    33  18  53 S8        29.99F WCI  26
MINERAL POINT  CLOUDY    32  21  64 S9G16     29.97F WCI  24
MADISON        CLOUDY    32  18  56 S9        29.99F WCI  24
MIDDLETON      CLOUDY    33  19  56 S9        30.00F WCI  26
WATERTOWN      CLOUDY    31  20  62 S9        30.00F WCI  23
MONROE         CLOUDY    32  21  64 S13G18    30.00F WCI  22
JANESVILLE     CLOUDY    34  21  60 S12       30.02F WCI  25
$$

WIZ051-052-058>065-066-070>072-231000-
SOUTHEAST WISCONSIN

CITY           SKY/WX    TMP DP  RH WIND       PRES   REMARKS
MILWAUKEE      CLOUDY    33  20  58 S12       30.04F WCI  24
WAUKESHA       CLOUDY    30  18  59 S7        30.02F WCI  23
MILWAUKEE/TIMM CLOUDY    32  16  51 S8        30.03F WCI  25
RACINE         CLOUDY    32  20  61 SW10      30.07F WCI  24
BURLINGTON     CLOUDY    33  26  76 S10G17    30.04F WCI  25
KENOSHA        CLOUDY    32  19  58 SW10      30.06F WCI  24
FOND DU LAC    CLOUDY    31  18  58 SW9       30.00F WCI  23
SHEBOYGAN      CLOUDY    30  22  72 S7        30.00F WCI  23
WEST BEND      CLOUDY    30  18  59 S7        30.00F WCI  23
JUNEAU         CLOUDY    31  19  61 S10       30.01F WCI  22
$$

LSZ147-162-231000-
LAKE SUPERIOR

STATION/POSITION TIME  TEMP    WIND        PRES    WAVE
                       AIR SEA DIR/SP/G            HT/PER
                 (UTC) (F)     (DEG/KT/KT) (MB)    (FT/S)
DEVILS ISLAND    0900   30     250/ 16/ 20 1014.4F
SAXON HARBOR     0830   28     180/  9/ 12 1013.5S
$$

LMZ867-665-643>646-231000-
LAKE MICHIGAN

STATION/POSITION TIME  TEMP    WIND        PRES    WAVE
                       AIR SEA DIR/SP/G            HT/PER
                 (UTC) (F)     (DEG/KT/KT) (MB)    (FT/S)
N MID LAKE BUOY  0850   33 47  240/ 17/ 21 1016.6F   4/ 5
NORTHPORT PIER   0859   31     240/  3/ 13 1015.2F
KEWAUNEE LAKESHO 0848   29     210/  5/  7 1015.6F
SHEBOYGAN LAKESH 0900   32     200/ 10/ 12 1016.8F
PORT WASHINGTON  0840   33     200/  5/  8 1017.9F
MILWAUKEE LAKESH 0850   33     200/ 10/ 12   N/A
S MID LAKE BUOY  0750   36 47  270/ 17/ 21 1020.5F   3/ 5
KENOSHA   LAKESH 0900   33     200/  8/ 12 1017.9
$$

TC  - TEMPERATURE IN CELSIUS
VSB - VISIBILITY IN STATUTE MILES
WCI - WIND CHILL INDEX
HX  - HEAT INDEX




ASUS43 KMKX 230920
RWRWI

WISCONSIN REGIONAL WEATHER ROUNDUP
NATIONAL WEATHER SERVICE MILWAUKEE/SULLIVAN WI
300 AM CST THU NOV 23 2017

NOTE: "FAIR" INDICATES FEW OR NO CLOUDS BELOW 12,000 FEET WITH NO
SIGNIFICANT WEATHER AND/OR OBSTRUCTIONS TO VISIBILITY.

WIZ001-002-006>008-014>016-023>028-231000-
NORTHWEST WISCONSIN

CITY           SKY/WX    TMP DP  RH WIND       PRES   REMARKS
SUPERIOR ARPT  CLOUDY    25  21  87 SW3       29.95F
ASHLAND        CLOUDY    26  18  71 SW7       29.95S WCI  18
HAYWARD        CLOUDY    26  20  77 CALM      29.94R
SIREN          CLOUDY    27  19  73 CALM      29.94S
CUMBERLAND     CLOUDY    25  19  80 CALM      29.93S
RICE LAKE      CLOUDY    26  21  79 CALM      29.95S
CHETEK         CLOUDY    25  20  80 E5        29.94S WCI  20
LADYSMITH      CLOUDY    27  21  80 CALM      29.94F
EAU CLAIRE     CLOUDY    20  15  81 CALM      29.94F
MENOMONIE      CLOUDY    24  19  82 CALM      29.95S
NEW RICHMOND   CLOUDY    22  16  76 CALM      29.94S
OSCEOLA        CLOUDY    21  17  82 CALM      29.97S
$$

WIZ003>005-009-010-017-018-231000-
NORTH CENTRAL WISCONSIN

CITY           SKY/WX    TMP DP  RH WIND       PRES   REMARKS
MANITOWISH WTR CLOUDY    23  20  90 SW3       29.91S
ARBOR VITAE    CLOUDY    24  21  88 SW6       29.91F WCI  17
WOODRUFF       CLOUDY    24  21  88 SW6       29.91F WCI  17
RHINELANDER    CLOUDY    24  21  88 SW5       29.93F WCI  18
EAGLE RIVER    CLOUDY    24  19  81 SW7       29.90F WCI  15
LAND O LAKES   CLOUDY    24  20  84 SW7       29.91F WCI  16
PHILLIPS       CLOUDY    24  20  86 CALM      29.92S
TOMAHAWK       CLOUDY    24  20  87 CALM      29.94F
MEDFORD        PTCLDY    23  18  82 CALM      29.93F
MERRILL        CLOUDY    26  20  80 CALM      29.95F
$$

WIZ029-030-035-036-043>047-231000-
CENTRAL WISCONSIN

CITY           SKY/WX    TMP DP  RH WIND       PRES   REMARKS
WAUSAU         CLOUDY    26  20  77 SE3       29.95F
MOSINEE        CLOUDY    27  21  80 CALM      29.96F
MARSHFIELD     CLEAR     25  16  68 S3        29.94S
STEVENS POINT  CLOUDY    26  18  70 CALM      29.98S
WAUPACA        CLOUDY    30  22  72 CALM      29.99F
WAUTOMA        CLOUDY    30  19  63 S5        29.98F WCI  25
WISC RAPIDS    CLOUDY    28  17  63 CALM      29.98S
CAMP DOUGLAS   MOCLDY    29  15  56 CALM      29.96F
$$

WIZ011>013-019>022-031-037>040-048>050-231000-
NORTHEAST WISCONSIN

CITY           SKY/WX    TMP DP  RH WIND       PRES   REMARKS
ANTIGO         CLOUDY    25  20  82 SW6       29.94F WCI  18
SHAWANO        CLOUDY    30  23  74 CALM      29.99F
OCONTO         CLOUDY    28  22  76 W5        30.01S WCI  23
STURGEON BAY   CLOUDY    29  23  78 SW8       30.01F WCI  21
GREEN BAY      CLOUDY    30  25  81 SW6       30.01S WCI  24
MANITOWOC      CLOUDY    30  23  75 S7        30.02F WCI  23
APPLETON       CLOUDY    30  21  69 S5        29.98S WCI  25
CLINTONVILLE   CLOUDY    28  21  74 CALM      30.00S
OSHKOSH        CLOUDY    30  21  69 S8        29.99F WCI  22
$$

WIZ032>034-041-042-053>061-231000-
SOUTHWEST WISCONSIN

CITY           SKY/WX    TMP DP  RH WIND       PRES   REMARKS
LA CROSSE      CLEAR     33  19  56 S9        29.97R WCI  25
SPARTA         MOCLDY    30  17  59 CALM      29.98R
VIROQUA        CLEAR     28  19  69 S6        29.94F WCI  22
BOSCOBEL       CLEAR     33  16  49 S6        29.99F WCI  28
PRAIRIE DU CHI CLEAR     33  16  50 S5        29.99S WCI  28
PLATTEVILLE    CLEAR     30  21  69 S10       29.99F WCI  21
$$

WIZ056-057-062-063-064-067-068-231000-
SOUTH CENTRAL WISCONSIN

CITY           SKY/WX    TMP DP  RH WIND       PRES   REMARKS
REEDSBURG      CLOUDY    31  17  56 S3        29.97F
BARABOO/DELLS  CLOUDY    31  16  54 SW10      29.96F WCI  22
LONE ROCK      CLOUDY    33  18  53 S8        29.99F WCI  26
MINERAL POINT  CLOUDY    32  21  64 S9G16     29.97F WCI  24
MADISON        CLOUDY    32  18  56 S9        29.99F WCI  24
MIDDLETON      CLOUDY    33  19  56 S9        30.00F WCI  26
WATERTOWN      CLOUDY    31  20  62 S9        30.00F WCI  23
MONROE         CLOUDY    32  21  64 S13G18    30.00F WCI  22
JANESVILLE     CLOUDY    34  21  60 S12       30.02F WCI  25
$$

WIZ051-052-058>065-066-070>072-231000-
SOUTHEAST WISCONSIN

CITY           SKY/WX    TMP DP  RH WIND       PRES   REMARKS
MILWAUKEE      CLOUDY    33  20  58 S12       30.04F WCI  24
WAUKESHA       CLOUDY    30  18  59 S7        30.02F WCI  23
MILWAUKEE/TIMM CLOUDY    32  16  51 S8        30.03F WCI  25
RACINE         CLOUDY    32  20  61 SW10      30.07F WCI  24
BURLINGTON     CLOUDY    33  26  76 S10G17    30.04F WCI  25
KENOSHA        CLOUDY    32  19  58 SW10      30.06F WCI  24
FOND DU LAC    CLOUDY    31  18  58 SW9       30.00F WCI  23
SHEBOYGAN      CLOUDY    30  22  72 S7        30.00F WCI  23
WEST BEND      CLOUDY    30  18  59 S7        30.00F WCI  23
JUNEAU         CLOUDY    31  19  61 S10       30.01F WCI  22
$$

LSZ147-162-231000-
LAKE SUPERIOR

STATION/POSITION TIME  TEMP    WIND        PRES    WAVE
                       AIR SEA DIR/SP/G            HT/PER
                 (UTC) (F)     (DEG/KT/KT) (MB)    (FT/S)
DEVILS ISLAND    0900   30     250/ 16/ 20 1014.4F
SAXON HARBOR     0830   28     180/  9/ 12 1013.5S
$$

LMZ867-665-643>646-231000-
LAKE MICHIGAN

STATION/POSITION TIME  TEMP    WIND        PRES    WAVE
                       AIR SEA DIR/SP/G            HT/PER
                 (UTC) (F)     (DEG/KT/KT) (MB)    (FT/S)
N MID LAKE BUOY  0850   33 47  240/ 17/ 21 1016.6F   4/ 5
NORTHPORT PIER   0859   31     240/  3/ 13 1015.2F
KEWAUNEE LAKESHO 0854   29     220/  5/  7 1015.6F
SHEBOYGAN LAKESH 0900   32     200/ 10/ 12 1016.8F
PORT WASHINGTON  0840   33     200/  5/  8 1017.9F
MILWAUKEE LAKESH 0900   33     200/ 12/ 14   N/A
S MID LAKE BUOY  0850   36 47  260/ 17/ 21 1019.6F   3/ 5
KENOSHA   LAKESH 0900   33     200/  8/ 12 1017.9
$$

TC  - TEMPERATURE IN CELSIUS
VSB - VISIBILITY IN STATUTE MILES
WCI - WIND CHILL INDEX
HX  - HEAT INDEX